This demonstration page uses our WeatherBlox Daily Observations layout. Learn more.

Left ArrowRight Arrow

39.12711, -84.51439

Hourly Observations for August 11, 2018

Temp ( °F °C ) Dew Point ( °F °C ) Humidity (%) Winds ( mph kmh ) Pressure ( in mb ) Visibility ( mi km ) Precip ( " mm )
12:01 am 00:01 Cloudy with Strong Thunderstorms 71 21.7 69 20.6 94 94 VRB 5 7 29.97 1015 2 3 0.11 2.79
12:19 am 00:19 Cloudy with Thunderstorms 70 21.1 70 21.1 100 100 E 13 20 29.94 1014 3 5 0.35 8.89
12:26 am 00:26 Cloudy with Thunderstorms 70 21.1 69 20.6 97 97 ENE 9 15 29.97 1015 8 13 0.35 8.89
12:37 am 00:37 Cloudy with Strong Thunderstorms 70 21.1 69 20.6 97 97 VRB 6 9 29.97 1015 3 4 0.44 11.18
12:53 am 00:53 Cloudy with Thunderstorms 70 21.1 69 20.6 97 97 N N/A 29.98 1015 10 16 0.44 11.18
1:06 am 01:06 Cloudy with Strong Thunderstorms 69 20.6 68 20 96 96 SSE 3 6 29.97 1015 2 3 0.10 2.54
1:10 am 01:10 Cloudy with Nearby Thunderstorms 69 20.6 68 20 96 96 SW 5 7 29.94 1014 3 5 0.11 2.79
1:30 am 01:30 Mostly Cloudy 69 20.6 67 19.4 93 93 SSW 3 6 29.94 1014 10 16 0.11 2.79
1:53 am 01:53 Mostly Cloudy 69 20.6 68 20 96 96 N N/A 29.96 1015 10 16 0.11 2.79
2:53 am 02:53 Mostly Cloudy 68 20 68 20 100 100 SW 3 6 29.93 1014 10 16 N/A
3:48 am 03:48 Clear with Mist and Fog 66 19 66 19 100 100 N N/A 29.91 1013 2 3 N/A
3:53 am 03:53 Clear with Mist and Fog 67 19.4 67 19.4 100 100 SSW 3 6 29.93 1014 2 2 N/A
3:57 am 03:57 Clear with Mist and Fog 66 18.9 66 18.9 100 100 SSW 3 6 29.91 1013 3 5 N/A
4:53 am 04:53 Mostly Cloudy 67 19.4 67 19.4 100 100 N N/A 29.92 1013 8 13 N/A
5:46 am 05:46 Clear with Mist and Fog 67 19.4 67 19.4 100 100 ENE 3 6 29.91 1013 2 3 N/A
5:53 am 05:53 Clear with Mist and Fog 66 18.9 66 18.9 100 100 N N/A 29.92 1013 2 3 N/A
5:57 am 05:57 Clear with Mist and Fog 66 18.9 66 18.9 100 100 N N/A 29.91 1013 3 5 N/A
6:30 am 06:30 Mostly Clear with Mist and Fog 66 18.9 66 18.9 100 100 N N/A 29.91 1013 2 3 N/A
6:34 am 06:34 Mostly Cloudy with Mist and Fog 66 18.9 66 18.9 100 100 N N/A 29.91 1013 1 2 N/A
6:43 am 06:43 Mostly Clear with Mist and Fog 66 18.9 66 18.9 100 100 N N/A 29.91 1013 2 3 N/A
6:50 am 06:50 Partly Cloudy with Mist and Fog 66 19 66 19 100 100 N N/A 29.91 1013 6 10 N/A
6:53 am 06:53 Sunny 66 18.9 66 18.9 100 100 N N/A 29.93 1014 7 11 N/A
7:53 am 07:53 Mostly Sunny 68 20 68 20 100 100 N N/A 29.94 1014 8 13 N/A
8:53 am 08:53 Mostly Cloudy 70 21.1 69 20.6 97 97 N N/A 29.95 1014 10 16 N/A
9:53 am 09:53 Mostly Cloudy 72 22.2 70 21.1 94 94 N N/A 29.96 1015 10 16 N/A
10:53 am 10:53 Sunny 79 26.1 73 22.8 82 82 N N/A 29.96 1015 10 16 N/A
11:53 am 11:53 Mostly Cloudy 81 27.2 73 22.8 77 77 N N/A 29.97 1015 10 16 N/A
12:53 pm 12:53 Partly Cloudy 83 28.3 72 22.2 70 70 S 5 7 29.96 1015 10 16 N/A
1:53 pm 13:53 Sunny 84 28.9 72 22.2 67 67 N N/A 29.95 1014 10 16 N/A
2:28 pm 14:28 Mostly Cloudy with Light Rain 81 27.2 72 22.2 74 74 NW 12 19 29.91 1013 6 10 0.01 0.25
2:53 pm 14:53 Mostly Cloudy with Thunderstorms 78 25.6 73 22.8 85 85 N N/A 29.94 1014 8 13 0.10 2.54
3:10 pm 15:10 Mostly Cloudy with Thunderstorms 83 28.3 76 24.4 79 79 NNW 7 11 29.91 1013 8 13 N/A
3:53 pm 15:53 Mostly Cloudy with Thunderstorms 81 27.2 71 21.7 72 72 E 13 20 29.94 1014 10 16 N/A
4:53 pm 16:53 Partly Cloudy with Thunderstorms 74 23.3 69 20.6 85 85 SSW 8 13 29.95 1014 10 16 N/A
5:19 pm 17:19 Mostly Cloudy 73 22.8 70 21.1 90 90 N N/A 29.91 1013 10 16 N/A
5:33 pm 17:33 Mostly Cloudy 73 22.8 70 21.1 90 90 N N/A 29.91 1013 10 16 N/A
5:53 pm 17:53 Mostly Sunny 74 23.3 70 21.1 88 88 N N/A 29.94 1014 10 16 N/A
6:14 pm 18:14 Mostly Cloudy with Nearby Thunderstorms 73 22.8 71 21.7 94 94 VRB 5 7 29.94 1014 10 16 N/A
6:37 pm 18:37 Cloudy with Light Rain 74 23.3 72 22.2 94 94 N N/A 29.94 1014 7 11 N/A
6:53 pm 18:53 Mostly Cloudy with Light Rain 74 23.3 72 22.2 94 94 N N/A 29.95 1014 9 14 0.01 0.25
7:53 pm 19:53 Mostly Sunny 74 23.3 72 22.2 94 94 N N/A 29.95 1014 9 14 N/A
8:53 pm 20:53 Mostly Clear 73 22.8 72 22.2 96 96 N N/A 29.98 1015 10 16 N/A
9:53 pm 21:53 Mostly Clear 71 21.7 70 21.1 96 96 N N/A 30.00 1016 10 16 N/A
10:53 pm 22:53 Clear with Mist and Fog 69 20.6 69 20.6 100 100 N N/A 29.99 1016 3 4 N/A
11:05 pm 23:05 Clear with Mist and Fog 68 20 68 20 100 100 N N/A 29.97 1015 1 1 N/A
11:12 pm 23:12 Clear with Mist and Fog 69 20.6 69 20.6 100 100 N N/A 29.97 1015 2 3 N/A
11:20 pm 23:20 Clear with Mist and Fog 69 20.6 69 20.6 100 100 N N/A 29.97 1015 3 5 N/A
11:24 pm 23:24 Clear with Mist and Fog 68 20 68 20 100 100 N N/A 29.97 1015 2 3 N/A
11:33 pm 23:33 Clear with Mist and Fog 68 20 68 20 100 100 N N/A 29.97 1015 3 5 N/A
11:45 pm 23:45 Clear with Mist and Fog 68 20 68 20 100 100 N N/A 30.00 1016 2 3 N/A
11:53 pm 23:53 Clear with Mist and Fog 67 19.4 67 19.4 100 100 ESE 5 7 30.01 1016 2 2 N/A
11:57 pm 23:57 Clear with Mist and Fog 68 20 68 20 100 100 E 3 6 30.00 1016 3 5 N/A

Powered by AerisWeather